User: anonymous   Login
Location: Amsterdam
(30.7274°N, 84.4357°W)
Time: 23:47:47
(UTC+00:00)
Language:

Transit 2A Rocket - Orbit

View from above orbital plane
View from above orbital plane
View from above satellite
View from above satellite

Ground track
Ground track

The orbit is defined by the following mean orbital elements,

1 00047U          26047.28152243 +.00000000 +00000-0 +10404-3 0 00002
2 00047  66.6657  11.5037 0224293 228.0472 130.1330 14.45170116    04
Epoch (UTC): 16 February 2026 06:45:23
Eccentricity: 0.0224293
inclination: 66.6657°
perigee height: 582 km
apogee height: 901 km
right ascension of ascending node: 11.5037°
argument of perigee: 228.0472°
revolutions per day: 14.45170116
mean anomaly at epoch: 130.1330°

The dashed part of the orbit path shows where the satellite is in the earth's shadow,  

DLR